Flag for Germany Weather past 2 weeks in Dinslaken, North Rhine-Westphalia, Germany

Now
64 °F

Overcast.


Feels Like: 64 °F
Forecast: 49 / 63 °F
Wind: 5 mph from West

Location: Essen

Current Time: Sep 3, 2015 at 5:51:24 PM

Latest Report: Sep 3, 2015 at 5:00 PM


Visibility: 17 mi

Pressure: 29.92 "Hg

Humidity: 60%

Dew point: 50 °F

Location of DinslakenLocation

Historic Weather in Dinslaken — Graph

°F

Dinslaken temperature yesterday

Maximum temperature yesterday: 62 °F (at 1:00 PM)
Minimum temperature yesterday: 50 °F (at 7:00 AM)
Average temperature yesterday: 56 °F

Past Weeks' High & Low Weather Summary

 TemperatureHumidityPressure
High88 °F (Aug 31, 3:00 PM)100% (Aug 24, 5:00 AM)30.25 "Hg (Aug 24, 5:00 AM)
Low50 °F (Sep 2, 7:00 AM)30% (Aug 31, 6:00 PM)29.53 "Hg (Aug 24, 5:00 PM)
Average66 °F72%29.97 "Hg
* Reported Aug 19 4:00 PM — Sep 3 4:00 PM, Dinslaken, Weather by CustomWeather, © 2015

Note: Actual official high and low records may vary slightly from our data, if they occured in-between our weather recording intervals... More about our weather records

Advertising

Dinslaken weather history for previous 24 hours

 ConditionsComfort  
Time TempWeatherWind HumidityBarometerVisibility
4:00 PM
Thu, Sep 3
63 °FPassing clouds.5 mph62%29.93 "Hg12 mi
3:00 PM60 °FOvercast.5 mph64%29.94 "Hg13 mi
2:00 PM58 °FLow clouds.2 mph80%29.95 "Hg10 mi
1:00 PM59 °FOvercast.3 mph73%29.95 "Hg11 mi
12:00 PM59 °FScattered clouds.3 mph74%29.96 "Hg11 mi
11:00 AM58 °FScattered clouds.2 mph81%29.96 "Hg7 mi
10:00 AM54 °FPartly sunny.2 mph92%29.97 "Hg2 mi
9:00 AM53 °FLow clouds.2 mph100%29.97 "Hg1 mi
8:00 AM52 °FSunny.2 mph100%29.97 "Hg0 mi
7:00 AM51 °FSunny.1 mph100%29.97 "Hg0 mi
5:00 AM54 °FOvercast.1 mph99%29.98 "Hg2 mi
4:00 AM54 °FDrizzle. Low clouds.1 mph99%29.98 "Hg1 mi
3:00 AM54 °FLight rain. Overcast.1 mph97%29.99 "Hg4 mi
2:00 AM55 °FLight rain. Overcast.1 mph88%29.99 "Hg7 mi
1:00 AM55 °FDrizzle. Overcast.2 mph86%30.00 "Hg13 mi
11:00 PM
Wed, Sep 2
56 °FOvercast.2 mph83%30.00 "Hg19 mi
10:00 PM56 °FOvercast.1 mph88%30.01 "Hg19 mi
9:00 PM57 °FOvercast.1 mph88%30.01 "Hg25 mi
8:00 PM59 °FOvercast.1 mph74%30.00 "Hg37 mi
7:00 PM60 °FOvercast.1 mph71%29.99 "Hg43 mi
6:00 PM60 °FOvercast.1 mph69%29.99 "Hg34 mi
5:00 PM60 °FOvercast.2 mph68%30.01 "Hg40 mi
Weather by CustomWeather, © 2015

See weather overviewHow to use our weather pages